Time,TemperatureF,DewpointF,PressureIn,WindDirection,WindDirectionDegrees,WindSpeedMPH,WindSpeedGustMPH,Humidity,HourlyPrecipIn,Conditions,Clouds,dailyrainin,SoftwareType,DateUTC
2013-02-10 00:00:00,21.0,20.0,29.96,SE,135,7.0,11.0,96,0.00,,,-99.99,Weather View 32 v60,2013-02-10 05:00:00,
2013-02-10 00:05:00,21.0,20.0,29.96,South,180,7.0,13.0,96,0.00,,,-99.99,Weather View 32 v60,2013-02-10 05:05:00,
2013-02-10 00:10:00,21.0,20.0,29.96,SE,135,9.0,14.0,96,0.00,,,-99.99,Weather View 32 v60,2013-02-10 05:10:00,
2013-02-10 00:15:00,21.0,20.0,29.96,SE,135,7.0,14.0,96,0.00,,,-99.99,Weather View 32 v60,2013-02-10 05:15:00,
2013-02-10 00:20:00,21.0,20.0,29.96,SE,135,6.0,14.0,96,0.00,,,-99.99,Weather View 32 v60,2013-02-10 05:20:00,
2013-02-10 00:25:00,21.0,20.0,29.96,SE,135,5.0,14.0,96,0.00,,,-99.99,Weather View 32 v60,2013-02-10 05:25:00,
2013-02-10 00:30:00,21.0,20.0,29.95,SE,135,7.0,14.0,96,0.00,,,-99.99,Weather View 32 v60,2013-02-10 05:30:00,
2013-02-10 00:35:00,21.0,20.0,29.95,SE,135,9.0,14.0,96,0.00,,,-99.99,Weather View 32 v60,2013-02-10 05:35:00,
2013-02-10 00:40:00,21.0,20.0,29.95,SE,135,7.0,14.0,96,0.00,,,-99.99,Weather View 32 v60,2013-02-10 05:40:00,
2013-02-10 00:45:00,21.0,20.0,29.95,SE,135,8.0,15.0,96,0.00,,,-99.99,Weather View 32 v60,2013-02-10 05:45:00,
2013-02-10 00:50:00,21.0,20.0,29.95,SE,135,6.0,15.0,96,0.00,,,-99.99,Weather View 32 v60,2013-02-10 05:50:00,
2013-02-10 00:55:00,21.0,20.0,29.95,SE,135,7.0,17.0,96,0.00,,,-99.99,Weather View 32 v60,2013-02-10 05:55:00,
2013-02-10 01:00:00,20.0,19.3,29.95,SE,135,10.0,17.0,97,0.00,,,-99.99,Weather View 32 v60,2013-02-10 06:00:00,
2013-02-10 01:05:00,20.0,19.3,29.95,SE,135,7.0,17.0,97,0.00,,,-99.99,Weather View 32 v60,2013-02-10 06:05:00,
2013-02-10 01:10:00,20.0,19.3,29.95,SE,135,8.0,17.0,97,0.00,,,-99.99,Weather View 32 v60,2013-02-10 06:10:00,
2013-02-10 01:15:00,20.0,19.3,29.95,SE,135,11.0,17.0,97,0.00,,,-99.99,Weather View 32 v60,2013-02-10 06:15:00,
2013-02-10 01:20:00,20.0,19.0,29.94,SE,135,9.0,17.0,96,0.00,,,-99.99,Weather View 32 v60,2013-02-10 06:20:00,
2013-02-10 01:25:00,20.0,19.0,29.94,SE,135,7.0,17.0,96,0.00,,,-99.99,Weather View 32 v60,2013-02-10 06:25:00,
2013-02-10 01:30:00,20.0,19.0,29.95,SE,135,10.0,17.0,96,0.00,,,-99.99,Weather View 32 v60,2013-02-10 06:30:00,
2013-02-10 01:35:00,20.0,19.0,29.95,SE,135,10.0,17.0,96,0.00,,,-99.99,Weather View 32 v60,2013-02-10 06:35:00,
2013-02-10 01:40:00,21.0,20.0,29.94,SE,135,8.0,17.0,96,0.00,,,-99.99,Weather View 32 v60,2013-02-10 06:40:00,
2013-02-10 01:45:00,21.0,20.0,29.94,SE,135,9.0,17.0,96,0.00,,,-99.99,Weather View 32 v60,2013-02-10 06:45:00,
2013-02-10 01:50:00,21.0,20.0,29.94,SE,135,9.0,17.0,96,0.00,,,-99.99,Weather View 32 v60,2013-02-10 06:50:00,
2013-02-10 01:55:00,21.0,20.0,29.94,SE,135,11.0,16.0,96,0.00,,,-99.99,Weather View 32 v60,2013-02-10 06:55:00,
2013-02-10 02:00:00,21.0,20.0,29.94,ESE,112,10.0,16.0,96,0.00,,,-99.99,Weather View 32 v60,2013-02-10 07:00:00,
2013-02-10 02:05:00,21.0,20.0,29.94,SE,135,9.0,16.0,96,0.00,,,-99.99,Weather View 32 v60,2013-02-10 07:05:00,
2013-02-10 02:10:00,21.0,20.0,29.95,SE,135,7.0,16.0,96,0.00,,,-99.99,Weather View 32 v60,2013-02-10 07:10:00,
2013-02-10 02:15:00,20.0,19.3,29.95,SE,135,10.0,16.0,97,0.00,,,-99.99,Weather View 32 v60,2013-02-10 07:15:00,
2013-02-10 02:20:00,20.0,19.3,29.94,SE,135,10.0,16.0,97,0.00,,,-99.99,Weather View 32 v60,2013-02-10 07:20:00,
2013-02-10 02:25:00,20.0,19.3,29.94,SE,135,8.0,16.0,97,0.00,,,-99.99,Weather View 32 v60,2013-02-10 07:25:00,
2013-02-10 02:30:00,20.0,19.3,29.94,SE,135,10.0,15.0,97,0.00,,,-99.99,Weather View 32 v60,2013-02-10 07:30:00,
2013-02-10 02:35:00,20.0,19.3,29.94,SE,135,8.0,15.0,97,0.00,,,-99.99,Weather View 32 v60,2013-02-10 07:35:00,
2013-02-10 02:40:00,20.0,19.3,29.93,SE,135,9.0,15.0,97,0.00,,,-99.99,Weather View 32 v60,2013-02-10 07:40:00,
2013-02-10 02:45:00,20.0,19.3,29.93,SE,135,11.0,15.0,97,0.00,,,-99.99,Weather View 32 v60,2013-02-10 07:45:00,
2013-02-10 02:50:00,20.0,19.3,29.93,SE,135,10.0,15.0,97,0.00,,,-99.99,Weather View 32 v60,2013-02-10 07:50:00,
2013-02-10 02:55:00,20.0,19.3,29.93,SE,135,9.0,15.0,97,0.00,,,-99.99,Weather View 32 v60,2013-02-10 07:55:00,
2013-02-10 03:00:00,20.0,19.3,29.93,SE,135,8.0,15.0,97,0.00,,,-99.99,Weather View 32 v60,2013-02-10 08:00:00,
2013-02-10 03:05:00,20.0,19.3,29.93,SE,135,10.0,15.0,97,0.00,,,-99.99,Weather View 32 v60,2013-02-10 08:05:00,
2013-02-10 03:10:00,20.0,19.3,29.92,SE,135,10.0,15.0,97,0.00,,,-99.99,Weather View 32 v60,2013-02-10 08:10:00,
2013-02-10 03:15:00,20.0,19.3,29.92,SE,135,10.0,15.0,97,0.00,,,-99.99,Weather View 32 v60,2013-02-10 08:15:00,
2013-02-10 03:20:00,20.0,19.3,29.92,SE,135,10.0,15.0,97,0.00,,,-99.99,Weather View 32 v60,2013-02-10 08:20:00,
2013-02-10 03:25:00,20.0,19.3,29.92,SE,135,12.0,18.0,97,0.00,,,-99.99,Weather View 32 v60,2013-02-10 08:25:00,
2013-02-10 03:30:00,20.0,19.3,29.92,SE,135,10.0,20.0,97,0.00,,,-99.99,Weather View 32 v60,2013-02-10 08:30:00,
2013-02-10 03:35:00,20.0,19.3,29.92,SE,135,8.0,20.0,97,0.00,,,-99.99,Weather View 32 v60,2013-02-10 08:35:00,
2013-02-10 03:40:00,20.0,19.3,29.91,SE,135,12.0,20.0,97,0.00,,,-99.99,Weather View 32 v60,2013-02-10 08:40:00,
2013-02-10 03:45:00,20.0,19.3,29.91,SE,135,8.0,20.0,97,0.00,,,-99.99,Weather View 32 v60,2013-02-10 08:45:00,
2013-02-10 03:50:00,20.0,19.3,29.91,SE,135,8.0,20.0,97,0.00,,,-99.99,Weather View 32 v60,2013-02-10 08:50:00,
2013-02-10 03:55:00,20.0,19.5,29.91,SE,135,11.0,22.0,98,0.00,,,-99.99,Weather View 32 v60,2013-02-10 08:55:00,
2013-02-10 04:00:00,20.0,19.5,29.91,SE,135,8.0,22.0,98,0.00,,,-99.99,Weather View 32 v60,2013-02-10 09:00:00,
2013-02-10 04:05:00,20.0,19.5,29.91,SE,135,12.0,24.0,98,0.00,,,-99.99,Weather View 32 v60,2013-02-10 09:05:00,
2013-02-10 04:10:00,20.0,19.5,29.91,SE,135,10.0,24.0,98,0.00,,,-99.99,Weather View 32 v60,2013-02-10 09:10:00,
2013-02-10 04:15:00,20.0,19.5,29.91,SE,135,12.0,24.0,98,0.00,,,-99.99,Weather View 32 v60,2013-02-10 09:15:00,
2013-02-10 04:20:00,20.0,19.5,29.91,SE,135,9.0,24.0,98,0.00,,,-99.99,Weather View 32 v60,2013-02-10 09:20:00,
2013-02-10 04:25:00,20.0,19.5,29.91,ESE,112,12.0,24.0,98,0.00,,,-99.99,Weather View 32 v60,2013-02-10 09:25:00,
2013-02-10 04:30:00,20.0,19.3,29.91,ESE,112,10.0,24.0,97,0.00,,,-99.99,Weather View 32 v60,2013-02-10 09:30:00,
2013-02-10 04:40:00,20.0,19.3,29.90,SE,135,10.0,24.0,97,0.00,,,-99.99,Weather View 32 v60,2013-02-10 09:40:00,
2013-02-10 04:50:00,20.0,19.3,29.90,SE,135,20.0,24.0,97,0.00,,,-99.99,Weather View 32 v60,2013-02-10 09:50:00,
2013-02-10 05:00:00,20.0,19.3,29.89,SE,135,16.0,27.0,97,0.00,,,-99.99,Weather View 32 v60,2013-02-10 10:00:00,
2013-02-10 05:05:00,20.0,19.3,29.89,SE,135,17.0,27.0,97,0.00,,,-99.99,Weather View 32 v60,2013-02-10 10:05:00,
2013-02-10 05:10:00,20.0,19.3,29.89,SE,135,11.0,27.0,97,0.00,,,-99.99,Weather View 32 v60,2013-02-10 10:10:00,
2013-02-10 05:15:00,20.0,19.3,29.89,SE,135,19.0,27.0,97,0.00,,,-99.99,Weather View 32 v60,2013-02-10 10:15:00,
2013-02-10 05:30:00,21.0,20.0,29.89,SE,135,9.0,27.0,96,0.00,,,-99.99,Weather View 32 v60,2013-02-10 10:30:00,
2013-02-10 05:39:00,20.0,19.3,29.91,SE,135,11.0,24.0,97,0.00,,,-99.99,Weather View 32 v60,2013-02-10 10:39:00,
2013-02-10 05:40:00,21.0,20.0,29.88,SE,135,9.0,28.0,96,0.00,,,-99.99,Weather View 32 v60,2013-02-10 10:40:00,
2013-02-10 05:45:00,22.0,20.8,29.88,SE,135,12.0,28.0,95,0.00,,,-99.99,Weather View 32 v60,2013-02-10 10:45:00,
2013-02-10 05:49:00,20.0,19.3,29.90,SE,135,10.0,24.0,97,0.00,,,-99.99,Weather View 32 v60,2013-02-10 10:49:00,
2013-02-10 05:59:00,20.0,19.3,29.90,SE,135,15.0,27.0,97,0.00,,,-99.99,Weather View 32 v60,2013-02-10 10:59:00,
2013-02-10 06:05:00,23.0,21.5,29.87,SE,135,11.0,28.0,94,0.00,,,-99.99,Weather View 32 v60,2013-02-10 11:05:00,
2013-02-10 06:15:00,23.0,21.5,29.87,SE,135,9.0,28.0,94,0.00,,,-99.99,Weather View 32 v60,2013-02-10 11:15:00,
2013-02-10 06:21:00,20.0,19.3,29.89,SE,135,19.0,27.0,97,0.00,,,-99.99,Weather View 32 v60,2013-02-10 11:21:00,
2013-02-10 06:29:00,21.0,20.0,29.89,SE,135,9.0,27.0,96,0.00,,,-99.99,Weather View 32 v60,2013-02-10 11:29:00,
2013-02-10 06:39:00,21.0,20.0,29.89,SE,135,9.0,27.0,96,0.00,,,-99.99,Weather View 32 v60,2013-02-10 11:39:00,
2013-02-10 06:54:00,22.0,20.8,29.88,ESE,112,12.0,28.0,95,0.00,,,-99.99,Weather View 32 v60,2013-02-10 11:54:00,
2013-02-10 06:59:00,22.0,20.5,29.88,SE,135,10.0,28.0,94,0.00,,,-99.99,Weather View 32 v60,2013-02-10 11:59:00,
2013-02-10 07:04:00,23.0,21.5,29.87,SE,135,8.0,28.0,94,0.00,,,-99.99,Weather View 32 v60,2013-02-10 12:04:00,
2013-02-10 07:14:00,23.0,21.5,29.87,ESE,112,9.0,28.0,94,0.00,,,-99.99,Weather View 32 v60,2013-02-10 12:14:00,
2013-02-10 07:15:00,22.0,20.5,29.84,SE,135,18.0,24.0,94,0.00,,,-99.99,Weather View 32 v60,2013-02-10 12:15:00,
2013-02-10 07:19:00,23.0,21.5,29.87,SE,135,9.0,28.0,94,0.00,,,-99.99,Weather View 32 v60,2013-02-10 12:19:00,
2013-02-10 07:25:00,23.0,21.5,29.84,SE,135,16.0,24.0,94,0.00,,,-99.99,Weather View 32 v60,2013-02-10 12:25:00,
2013-02-10 07:29:00,23.0,21.5,29.87,SE,135,10.0,28.0,94,0.00,,,-99.99,Weather View 32 v60,2013-02-10 12:29:00,
2013-02-10 07:30:00,23.0,21.5,29.84,SE,135,13.0,21.0,94,0.00,,,-99.99,Weather View 32 v60,2013-02-10 12:30:00,
2013-02-10 07:34:00,23.0,21.5,29.86,SE,135,9.0,28.0,94,0.00,,,-99.99,Weather View 32 v60,2013-02-10 12:34:00,
2013-02-10 07:39:00,23.0,21.5,29.86,SE,135,11.0,28.0,94,0.00,,,-99.99,Weather View 32 v60,2013-02-10 12:39:00,
2013-02-10 07:44:00,23.0,21.5,29.85,SE,135,18.0,28.0,94,0.00,,,-99.99,Weather View 32 v60,2013-02-10 12:44:00,
2013-02-10 07:45:00,23.0,21.3,29.83,SE,135,19.0,19.0,93,0.00,,,-99.99,Weather View 32 v60,2013-02-10 12:45:00,
2013-02-10 07:49:00,23.0,21.5,29.85,SE,135,14.0,24.0,94,0.00,,,-99.99,Weather View 32 v60,2013-02-10 12:49:00,
2013-02-10 07:54:00,22.0,20.5,29.85,SE,135,17.0,24.0,94,0.00,,,-99.99,Weather View 32 v60,2013-02-10 12:54:00,
2013-02-10 07:55:00,23.0,21.0,29.83,East,90,10.0,23.0,92,0.00,,,-99.99,Weather View 32 v60,2013-02-10 12:55:00,
2013-02-10 07:59:00,22.0,20.5,29.85,SE,135,11.0,24.0,94,0.00,,,-99.99,Weather View 32 v60,2013-02-10 12:59:00,
2013-02-10 08:04:00,22.0,20.5,29.85,SE,135,11.0,24.0,94,0.00,,,-99.99,Weather View 32 v60,2013-02-10 13:04:00,
2013-02-10 08:09:00,22.0,20.5,29.85,SE,135,10.0,24.0,94,0.00,,,-99.99,Weather View 32 v60,2013-02-10 13:09:00,
2013-02-10 08:14:00,22.0,20.5,29.84,SE,135,14.0,24.0,94,0.00,,,-99.99,Weather View 32 v60,2013-02-10 13:14:00,
2013-02-10 08:15:00,24.0,21.8,29.80,ESE,112,10.0,23.0,91,0.00,,,-99.99,Weather View 32 v60,2013-02-10 13:15:00,
2013-02-10 08:19:00,22.0,20.5,29.84,SE,135,18.0,24.0,94,0.00,,,-99.99,Weather View 32 v60,2013-02-10 13:19:00,
2013-02-10 08:35:00,26.0,23.2,29.79,SE,135,9.0,23.0,89,0.00,,,-99.99,Weather View 32 v60,2013-02-10 13:35:00,
2013-02-10 08:39:00,23.0,21.5,29.84,SE,135,11.0,21.0,94,0.00,,,-99.99,Weather View 32 v60,2013-02-10 13:39:00,
2013-02-10 08:40:00,26.0,22.9,29.78,SE,135,15.0,23.0,88,0.00,,,-99.99,Weather View 32 v60,2013-02-10 13:40:00,
2013-02-10 08:44:00,23.0,21.3,29.83,SE,135,10.0,21.0,93,0.00,,,-99.99,Weather View 32 v60,2013-02-10 13:44:00,
2013-02-10 08:45:00,26.0,23.2,29.78,SE,135,14.0,24.0,89,0.00,,,-99.99,Weather View 32 v60,2013-02-10 13:45:00,
2013-02-10 08:50:00,27.0,23.9,29.78,SE,135,7.0,25.0,88,0.00,,,-99.99,Weather View 32 v60,2013-02-10 13:50:00,
2013-02-10 08:54:00,23.0,21.0,29.83,SE,135,13.0,23.0,92,0.00,,,-99.99,Weather View 32 v60,2013-02-10 13:54:00,
2013-02-10 08:55:00,27.0,23.9,29.78,SE,135,18.0,25.0,88,0.00,,,-99.99,Weather View 32 v60,2013-02-10 13:55:00,
2013-02-10 09:00:00,27.0,23.9,29.79,SE,135,8.0,25.0,88,0.00,,,-99.99,Weather View 32 v60,2013-02-10 14:00:00,
2013-02-10 09:04:00,23.0,21.3,29.81,ESE,112,12.0,23.0,93,0.00,,,-99.99,Weather View 32 v60,2013-02-10 14:04:00,
2013-02-10 09:09:00,24.0,22.0,29.81,SSE,157,10.0,23.0,92,0.00,,,-99.99,Weather View 32 v60,2013-02-10 14:09:00,
2013-02-10 09:14:00,24.0,21.8,29.80,SE,135,10.0,23.0,91,0.00,,,-99.99,Weather View 32 v60,2013-02-10 14:14:00,
2013-02-10 09:15:00,27.0,23.9,29.79,South,180,10.0,25.0,88,0.00,,,-99.99,Weather View 32 v60,2013-02-10 14:15:00,
2013-02-10 09:19:00,24.0,21.8,29.80,ESE,112,10.0,23.0,91,0.00,,,-99.99,Weather View 32 v60,2013-02-10 14:19:00,
2013-02-10 09:24:00,25.0,22.7,29.79,East,90,10.0,23.0,91,0.00,,,-99.99,Weather View 32 v60,2013-02-10 14:24:00,
2013-02-10 09:29:00,25.0,22.5,29.79,SE,135,16.0,23.0,90,0.00,,,-99.99,Weather View 32 v60,2013-02-10 14:29:00,
2013-02-10 09:34:00,26.0,23.2,29.79,SE,135,8.0,23.0,89,0.00,,,-99.99,Weather View 32 v60,2013-02-10 14:34:00,
2013-02-10 09:40:00,28.0,25.4,29.76,SE,135,14.0,25.0,90,0.00,,,-99.99,Weather View 32 v60,2013-02-10 14:40:00,
2013-02-10 09:45:00,28.0,25.2,29.76,SE,135,15.0,25.0,89,0.00,,,-99.99,Weather View 32 v60,2013-02-10 14:45:00,
2013-02-10 09:50:00,29.0,26.2,29.75,SE,135,15.0,24.0,89,0.00,,,-99.99,Weather View 32 v60,2013-02-10 14:50:00,
2013-02-10 09:55:00,29.0,25.9,29.75,SSW,202,4.0,24.0,88,0.00,,,-99.99,Weather View 32 v60,2013-02-10 14:55:00,
2013-02-10 10:00:00,29.0,25.9,29.76,SE,135,7.0,24.0,88,0.00,,,-99.99,Weather View 32 v60,2013-02-10 15:00:00,
2013-02-10 10:09:00,27.0,23.9,29.79,SE,135,13.0,25.0,88,0.00,,,-99.99,Weather View 32 v60,2013-02-10 15:09:00,
2013-02-10 10:14:00,27.0,23.9,29.79,SE,135,17.0,25.0,88,0.00,,,-99.99,Weather View 32 v60,2013-02-10 15:14:00,
2013-02-10 10:15:00,30.0,26.9,29.74,SSE,157,11.0,23.0,88,0.00,,,-99.99,Weather View 32 v60,2013-02-10 15:15:00,
2013-02-10 10:19:00,27.0,23.9,29.79,South,180,10.0,25.0,88,0.00,,,-99.99,Weather View 32 v60,2013-02-10 15:19:00,
2013-02-10 10:20:00,31.0,27.9,29.73,SE,135,12.0,23.0,88,0.00,,,-99.99,Weather View 32 v60,2013-02-10 15:20:00,
2013-02-10 10:24:00,28.0,24.9,29.78,SE,135,12.0,25.0,88,0.00,,,-99.99,Weather View 32 v60,2013-02-10 15:24:00,
2013-02-10 10:25:00,31.0,27.6,29.73,SE,135,21.0,28.0,87,0.00,,,-99.99,Weather View 32 v60,2013-02-10 15:25:00,
2013-02-10 10:29:00,28.0,24.9,29.78,SE,135,9.0,25.0,88,0.00,,,-99.99,Weather View 32 v60,2013-02-10 15:29:00,
2013-02-10 10:34:00,28.0,24.9,29.77,ESE,112,10.0,25.0,88,0.00,,,-99.99,Weather View 32 v60,2013-02-10 15:34:00,
2013-02-10 10:35:00,32.0,28.6,29.74,South,180,12.0,37.0,87,0.00,,,-99.99,Weather View 32 v60,2013-02-10 15:35:00,
2013-02-10 10:39:00,28.0,25.2,29.77,East,90,5.0,25.0,89,0.00,,,-99.99,Weather View 32 v60,2013-02-10 15:39:00,
2013-02-10 10:45:00,32.0,28.6,29.72,SSE,157,17.0,37.0,87,0.00,,,-99.99,Weather View 32 v60,2013-02-10 15:45:00,
2013-02-10 10:50:00,32.0,28.3,29.71,SE,135,9.0,37.0,86,0.00,,,-99.99,Weather View 32 v60,2013-02-10 15:50:00,
2013-02-10 10:55:00,32.0,28.3,29.71,ESE,112,10.0,37.0,86,0.00,,,-99.99,Weather View 32 v60,2013-02-10 15:55:00,
2013-02-10 11:00:00,32.0,28.0,29.71,SE,135,13.0,37.0,85,0.00,,,-99.99,Weather View 32 v60,2013-02-10 16:00:00,
2013-02-10 11:05:00,33.0,28.7,29.71,ESE,112,16.0,37.0,84,0.00,,,-99.99,Weather View 32 v60,2013-02-10 16:05:00,
2013-02-10 11:09:00,30.0,26.9,29.76,SE,135,19.0,24.0,88,0.00,,,-99.99,Weather View 32 v60,2013-02-10 16:09:00,
2013-02-10 11:10:00,33.0,28.7,29.70,SE,135,17.0,37.0,84,0.00,,,-99.99,Weather View 32 v60,2013-02-10 16:10:00,
2013-02-10 11:14:00,30.0,26.9,29.74,SE,135,17.0,23.0,88,0.00,,,-99.99,Weather View 32 v60,2013-02-10 16:14:00,
2013-02-10 11:15:00,33.0,28.7,29.70,SE,135,10.0,37.0,84,0.00,,,-99.99,Weather View 32 v60,2013-02-10 16:15:00,
2013-02-10 11:20:00,33.0,28.7,29.69,SE,135,11.0,37.0,84,0.00,,,-99.99,Weather View 32 v60,2013-02-10 16:20:00,
2013-02-10 11:25:00,34.0,29.7,29.69,SE,135,17.0,37.0,84,0.00,,,-99.99,Weather View 32 v60,2013-02-10 16:25:00,
2013-02-10 11:30:00,34.0,29.1,29.68,SE,135,13.0,27.0,82,0.00,,,-99.99,Weather View 32 v60,2013-02-10 16:30:00,
2013-02-10 11:34:00,31.0,27.6,29.74,SE,135,15.0,37.0,87,0.00,,,-99.99,Weather View 32 v60,2013-02-10 16:34:00,
2013-02-10 11:35:00,34.0,29.1,29.68,SE,135,17.0,27.0,82,0.00,,,-99.99,Weather View 32 v60,2013-02-10 16:35:00,
2013-02-10 11:40:00,34.0,29.1,29.67,SE,135,10.0,27.0,82,0.00,,,-99.99,Weather View 32 v60,2013-02-10 16:40:00,
2013-02-10 11:44:00,32.0,28.6,29.72,SE,135,12.0,37.0,87,0.00,,,-99.99,Weather View 32 v60,2013-02-10 16:44:00,
2013-02-10 11:45:00,34.0,29.1,29.67,SE,135,10.0,27.0,82,0.00,,,-99.99,Weather View 32 v60,2013-02-10 16:45:00,
2013-02-10 11:50:00,34.0,29.1,29.65,ESE,112,6.0,26.0,82,0.00,,,-99.99,Weather View 32 v60,2013-02-10 16:50:00,
2013-02-10 11:55:00,34.0,28.8,29.65,SE,135,9.0,26.0,81,0.00,,,-99.99,Weather View 32 v60,2013-02-10 16:55:00,
2013-02-10 12:00:00,34.0,28.8,29.64,SE,135,11.0,26.0,81,0.00,,,-99.99,Weather View 32 v60,2013-02-10 17:00:00,
2013-02-10 12:05:00,34.0,28.8,29.64,SSE,157,7.0,45.0,81,0.00,,,-99.99,Weather View 32 v60,2013-02-10 17:05:00,
2013-02-10 12:10:00,34.0,28.8,29.64,SE,135,10.0,45.0,81,0.00,,,-99.99,Weather View 32 v60,2013-02-10 17:10:00,
2013-02-10 12:20:00,35.0,29.8,29.62,ESE,112,10.0,45.0,81,0.00,,,-99.99,Weather View 32 v60,2013-02-10 17:20:00,
2013-02-10 12:25:00,35.0,30.1,29.62,SE,135,12.0,45.0,82,0.00,,,-99.99,Weather View 32 v60,2013-02-10 17:25:00,
2013-02-10 12:40:00,35.0,30.1,29.61,SE,135,16.0,45.0,82,0.00,,,-99.99,Weather View 32 v60,2013-02-10 17:40:00,
2013-02-10 12:45:00,35.0,30.1,29.61,SE,135,14.0,45.0,82,0.00,,,-99.99,Weather View 32 v60,2013-02-10 17:45:00,
2013-02-10 12:55:00,35.0,30.4,29.59,SE,135,14.0,45.0,83,0.00,,,-99.99,Weather View 32 v60,2013-02-10 17:55:00,
2013-02-10 13:00:00,35.0,30.7,29.59,SE,135,16.0,45.0,84,0.00,,,-99.99,Weather View 32 v60,2013-02-10 18:00:00,
2013-02-10 13:05:00,35.0,30.9,29.59,SE,135,12.0,29.0,85,0.00,,,-99.99,Weather View 32 v60,2013-02-10 18:05:00,
2013-02-10 13:19:00,34.0,29.1,29.64,SE,135,15.0,45.0,82,0.00,,,-99.99,Weather View 32 v60,2013-02-10 18:19:00,
2013-02-10 13:20:00,34.0,30.5,29.57,SE,135,9.0,24.0,87,0.00,,,-99.99,Weather View 32 v60,2013-02-10 18:20:00,
2013-02-10 13:24:00,35.0,29.8,29.62,ESE,112,10.0,45.0,81,0.00,,,-99.99,Weather View 32 v60,2013-02-10 18:24:00,
2013-02-10 13:25:00,34.0,30.5,29.57,SE,135,13.0,24.0,87,0.00,,,-99.99,Weather View 32 v60,2013-02-10 18:25:00,
2013-02-10 13:30:00,34.0,30.5,29.56,SSE,157,10.0,24.0,87,0.00,,,-99.99,Weather View 32 v60,2013-02-10 18:30:00,
2013-02-10 13:34:00,35.0,30.1,29.61,SE,135,17.0,45.0,82,0.00,,,-99.99,Weather View 32 v60,2013-02-10 18:34:00,
2013-02-10 13:39:00,35.0,30.1,29.61,SSE,157,13.0,45.0,82,0.00,,,-99.99,Weather View 32 v60,2013-02-10 18:39:00,
2013-02-10 13:40:00,34.0,30.5,29.55,SE,135,10.0,24.0,87,0.00,,,-99.99,Weather View 32 v60,2013-02-10 18:40:00,
2013-02-10 13:45:00,34.0,30.5,29.55,ESE,112,8.0,24.0,87,0.00,,,-99.99,Weather View 32 v60,2013-02-10 18:45:00,
2013-02-10 13:54:00,35.0,30.1,29.59,SE,135,7.0,45.0,82,0.00,,,-99.99,Weather View 32 v60,2013-02-10 18:54:00,
2013-02-10 14:05:00,34.0,30.5,29.54,SE,135,13.0,25.0,87,0.01,,,-99.99,Weather View 32 v60,2013-02-10 19:05:00,
2013-02-10 14:14:00,34.0,30.3,29.59,SSE,157,12.0,29.0,86,0.00,,,-99.99,Weather View 32 v60,2013-02-10 19:14:00,
2013-02-10 14:19:00,34.0,30.3,29.59,SE,135,12.0,24.0,86,0.00,,,-99.99,Weather View 32 v60,2013-02-10 19:19:00,
2013-02-10 14:20:00,35.0,31.5,29.53,SE,135,12.0,25.0,87,0.01,,,-99.99,Weather View 32 v60,2013-02-10 19:20:00,
2013-02-10 14:25:00,35.0,31.5,29.53,SE,135,10.0,25.0,87,0.02,,,-99.99,Weather View 32 v60,2013-02-10 19:25:00,
2013-02-10 14:40:00,34.0,30.5,29.56,SE,135,14.0,24.0,87,0.00,,,-99.99,Weather View 32 v60,2013-02-10 19:40:00,
2013-02-10 14:50:00,36.0,32.5,29.50,SE,135,19.0,32.0,87,0.08,,,-99.99,Weather View 32 v60,2013-02-10 19:50:00,
2013-02-10 14:54:00,34.0,30.5,29.55,SE,135,9.0,24.0,87,0.00,,,-99.99,Weather View 32 v60,2013-02-10 19:54:00,
2013-02-10 14:59:00,34.0,30.5,29.55,ESE,112,12.0,24.0,87,0.00,,,-99.99,Weather View 32 v60,2013-02-10 19:59:00,
2013-02-10 15:14:00,35.0,31.5,29.53,SE,135,16.0,25.0,87,0.01,,,-99.99,Weather View 32 v60,2013-02-10 20:14:00,
2013-02-10 15:19:00,35.0,31.5,29.53,SSE,157,11.0,25.0,87,0.01,,,-99.99,Weather View 32 v60,2013-02-10 20:19:00,
2013-02-10 15:20:00,36.0,32.5,29.43,SE,135,13.0,32.0,87,0.11,,,-99.99,Weather View 32 v60,2013-02-10 20:20:00,
2013-02-10 15:25:00,36.0,32.5,29.43,South,180,15.0,32.0,87,0.11,,,-99.99,Weather View 32 v60,2013-02-10 20:25:00,
2013-02-10 15:30:00,36.0,32.5,29.44,South,180,16.0,32.0,87,0.11,,,-99.99,Weather View 32 v60,2013-02-10 20:30:00,
2013-02-10 15:34:00,35.0,31.5,29.52,SE,135,14.0,25.0,87,0.03,,,-99.99,Weather View 32 v60,2013-02-10 20:34:00,
2013-02-10 15:39:00,35.0,31.5,29.52,SE,135,16.0,32.0,87,0.05,,,-99.99,Weather View 32 v60,2013-02-10 20:39:00,
2013-02-10 15:40:00,37.0,33.2,29.45,South,180,17.0,30.0,86,0.09,,,-99.99,Weather View 32 v60,2013-02-10 20:40:00,
2013-02-10 15:49:00,36.0,32.2,29.52,SE,135,10.0,32.0,86,0.07,,,-99.99,Weather View 32 v60,2013-02-10 20:49:00,
2013-02-10 15:59:00,36.0,32.5,29.50,SE,135,18.0,32.0,87,0.08,,,-99.99,Weather View 32 v60,2013-02-10 20:59:00,
2013-02-10 16:04:00,36.0,32.5,29.49,SE,135,15.0,32.0,87,0.09,,,-99.99,Weather View 32 v60,2013-02-10 21:04:00,
2013-02-10 16:05:00,38.0,33.9,29.42,ESE,112,5.0,30.0,85,0.06,,,-99.99,Weather View 32 v60,2013-02-10 21:05:00,
2013-02-10 16:09:00,36.0,32.5,29.49,SE,135,10.0,32.0,87,0.09,,,-99.99,Weather View 32 v60,2013-02-10 21:09:00,
2013-02-10 16:10:00,38.0,33.9,29.41,SSE,157,14.0,30.0,85,0.06,,,-99.99,Weather View 32 v60,2013-02-10 21:10:00,
2013-02-10 16:14:00,36.0,32.5,29.47,SE,135,13.0,32.0,87,0.10,,,-99.99,Weather View 32 v60,2013-02-10 21:14:00,
2013-02-10 16:20:00,38.0,33.9,29.41,South,180,10.0,30.0,85,0.05,,,-99.99,Weather View 32 v60,2013-02-10 21:20:00,
2013-02-10 16:24:00,36.0,32.5,29.43,SE,135,13.0,32.0,87,0.11,,,-99.99,Weather View 32 v60,2013-02-10 21:24:00,
2013-02-10 16:39:00,36.0,32.5,29.44,SSE,157,9.0,30.0,87,0.09,,,-99.99,Weather View 32 v60,2013-02-10 21:39:00,
2013-02-10 16:40:00,39.0,34.6,29.41,SE,135,11.0,30.0,84,0.04,,,-99.99,Weather View 32 v60,2013-02-10 21:40:00,
2013-02-10 16:45:00,39.0,34.6,29.41,South,180,11.0,30.0,84,0.04,,,-99.99,Weather View 32 v60,2013-02-10 21:45:00,
2013-02-10 16:49:00,37.0,33.5,29.45,SE,135,18.0,30.0,87,0.08,,,-99.99,Weather View 32 v60,2013-02-10 21:49:00,
2013-02-10 16:54:00,37.0,33.2,29.42,SE,135,11.0,30.0,86,0.07,,,-99.99,Weather View 32 v60,2013-02-10 21:54:00,
2013-02-10 16:55:00,40.0,35.6,29.40,South,180,16.0,30.0,84,0.03,,,-99.99,Weather View 32 v60,2013-02-10 21:55:00,
2013-02-10 16:59:00,38.0,33.9,29.42,SE,135,21.0,30.0,85,0.08,,,-99.99,Weather View 32 v60,2013-02-10 21:59:00,
2013-02-10 17:00:00,40.0,35.6,29.39,SE,135,17.0,34.0,84,0.04,,,-99.99,Weather View 32 v60,2013-02-10 22:00:00,
2013-02-10 17:04:00,38.0,33.9,29.42,SSE,157,21.0,30.0,85,0.07,,,-99.99,Weather View 32 v60,2013-02-10 22:04:00,
2013-02-10 17:10:00,40.0,35.6,29.38,SSE,157,10.0,34.0,84,0.03,,,-99.99,Weather View 32 v60,2013-02-10 22:10:00,
2013-02-10 17:15:00,40.0,35.6,29.38,SE,135,21.0,34.0,84,0.03,,,-99.99,Weather View 32 v60,2013-02-10 22:15:00,
2013-02-10 17:19:00,38.0,33.9,29.41,SE,135,20.0,30.0,85,0.06,,,-99.99,Weather View 32 v60,2013-02-10 22:19:00,
2013-02-10 17:20:00,40.0,35.2,29.38,SSE,157,25.0,34.0,83,0.04,,,-99.99,Weather View 32 v60,2013-02-10 22:20:00,
2013-02-10 17:24:00,38.0,33.9,29.41,South,180,10.0,30.0,85,0.05,,,-99.99,Weather View 32 v60,2013-02-10 22:24:00,
2013-02-10 17:25:00,40.0,35.6,29.38,SE,135,17.0,34.0,84,0.03,,,-99.99,Weather View 32 v60,2013-02-10 22:25:00,
2013-02-10 17:29:00,38.0,33.9,29.41,SSE,157,18.0,30.0,85,0.05,,,-99.99,Weather View 32 v60,2013-02-10 22:29:00,
2013-02-10 17:34:00,39.0,34.9,29.41,SSE,157,9.0,30.0,85,0.04,,,-99.99,Weather View 32 v60,2013-02-10 22:34:00,
2013-02-10 17:39:00,39.0,34.6,29.41,SE,135,10.0,30.0,84,0.04,,,-99.99,Weather View 32 v60,2013-02-10 22:39:00,
2013-02-10 17:40:00,41.0,36.2,29.37,SSE,157,15.0,34.0,83,0.02,,,-99.99,Weather View 32 v60,2013-02-10 22:40:00,
2013-02-10 17:45:00,41.0,36.2,29.37,SE,135,11.0,34.0,83,0.03,,,-99.99,Weather View 32 v60,2013-02-10 22:45:00,
2013-02-10 17:50:00,42.0,37.2,29.37,South,180,8.0,34.0,83,0.03,,,-99.99,Weather View 32 v60,2013-02-10 22:50:00,
2013-02-10 17:54:00,40.0,35.6,29.40,SE,135,20.0,30.0,84,0.04,,,-99.99,Weather View 32 v60,2013-02-10 22:54:00,
2013-02-10 17:55:00,42.0,37.2,29.37,South,180,19.0,34.0,83,0.03,,,-99.99,Weather View 32 v60,2013-02-10 22:55:00,
2013-02-10 18:00:00,43.0,38.5,29.37,SE,135,16.0,34.0,84,0.02,,,-99.99,Weather View 32 v60,2013-02-10 23:00:00,
2013-02-10 18:09:00,40.0,35.6,29.39,SE,135,22.0,34.0,84,0.04,,,-99.99,Weather View 32 v60,2013-02-10 23:09:00,
2013-02-10 18:15:00,42.0,37.5,29.37,South,180,19.0,39.0,84,0.03,,,-99.99,Weather View 32 v60,2013-02-10 23:15:00,
2013-02-10 18:20:00,41.0,36.5,29.37,SE,135,15.0,39.0,84,0.02,,,-99.99,Weather View 32 v60,2013-02-10 23:20:00,
2013-02-10 18:25:00,41.0,36.5,29.37,SSE,157,14.0,39.0,84,0.02,,,-99.99,Weather View 32 v60,2013-02-10 23:25:00,
2013-02-10 18:34:00,40.0,35.6,29.38,South,180,16.0,34.0,84,0.03,,,-99.99,Weather View 32 v60,2013-02-10 23:34:00,
2013-02-10 18:35:00,41.0,36.8,29.37,SE,135,12.0,39.0,85,0.03,,,-99.99,Weather View 32 v60,2013-02-10 23:35:00,
2013-02-10 18:39:00,41.0,36.2,29.38,SE,135,13.0,34.0,83,0.03,,,-99.99,Weather View 32 v60,2013-02-10 23:39:00,
2013-02-10 18:40:00,41.0,36.8,29.36,SE,135,30.0,39.0,85,0.03,,,-99.99,Weather View 32 v60,2013-02-10 23:40:00,
2013-02-10 18:45:00,41.0,36.8,29.36,SSE,157,19.0,46.0,85,0.02,,,-99.99,Weather View 32 v60,2013-02-10 23:45:00,
2013-02-10 18:55:00,41.0,36.8,29.37,SW,225,15.0,46.0,85,0.02,,,-99.99,Weather View 32 v60,2013-02-10 23:55:00,
2013-02-10 19:00:00,41.0,36.8,29.37,SSE,157,13.0,46.0,85,0.02,,,-99.99,Weather View 32 v60,2013-02-11 00:00:00,
2013-02-10 19:05:00,41.0,36.8,29.37,SE,135,23.0,46.0,85,0.02,,,-99.99,Weather View 32 v60,2013-02-11 00:05:00,
2013-02-10 19:09:00,42.0,37.2,29.37,SSW,202,27.0,35.0,83,0.02,,,-99.99,Weather View 32 v60,2013-02-11 00:09:00,
2013-02-10 19:10:00,41.0,36.8,29.36,SSE,157,19.0,46.0,85,0.03,,,-99.99,Weather View 32 v60,2013-02-11 00:10:00,
2013-02-10 19:14:00,42.0,37.2,29.37,South,180,16.0,37.0,83,0.03,,,-99.99,Weather View 32 v60,2013-02-11 00:14:00,
2013-02-10 19:15:00,41.0,37.1,29.36,SE,135,19.0,46.0,86,0.03,,,-99.99,Weather View 32 v60,2013-02-11 00:15:00,
2013-02-10 19:20:00,41.0,37.1,29.36,East,90,11.0,47.0,86,0.04,,,-99.99,Weather View 32 v60,2013-02-11 00:20:00,
2013-02-10 19:25:00,41.0,37.1,29.36,South,180,15.0,47.0,86,0.05,,,-99.99,Weather View 32 v60,2013-02-11 00:25:00,
2013-02-10 19:30:00,41.0,36.8,29.35,SE,135,27.0,47.0,85,0.04,,,-99.99,Weather View 32 v60,2013-02-11 00:30:00,
2013-02-10 19:34:00,41.0,36.5,29.37,South,180,9.0,39.0,84,0.03,,,-99.99,Weather View 32 v60,2013-02-11 00:34:00,
2013-02-10 19:40:00,42.0,37.8,29.34,SE,135,18.0,47.0,85,0.04,,,-99.99,Weather View 32 v60,2013-02-11 00:40:00,
2013-02-10 19:45:00,42.0,37.5,29.34,South,180,11.0,47.0,84,0.04,,,-99.99,Weather View 32 v60,2013-02-11 00:45:00,
2013-02-10 19:50:00,42.0,37.5,29.34,SSW,202,27.0,48.0,84,0.04,,,-99.99,Weather View 32 v60,2013-02-11 00:50:00,
2013-02-10 19:54:00,41.0,36.8,29.37,SSE,157,13.0,46.0,85,0.02,,,-99.99,Weather View 32 v60,2013-02-11 00:54:00,
2013-02-10 19:55:00,42.0,37.5,29.34,WSW,247,10.0,48.0,84,0.04,,,-99.99,Weather View 32 v60,2013-02-11 00:55:00,
2013-02-10 20:00:00,42.0,37.5,29.33,South,180,12.0,52.0,84,0.04,,,-99.99,Weather View 32 v60,2013-02-11 01:00:00,
2013-02-10 20:05:00,42.0,37.5,29.33,SW,225,16.0,52.0,84,0.04,,,-99.99,Weather View 32 v60,2013-02-11 01:05:00,
2013-02-10 20:10:00,42.0,37.5,29.33,South,180,9.0,52.0,84,0.02,,,-99.99,Weather View 32 v60,2013-02-11 01:10:00,
2013-02-10 20:15:00,42.0,37.5,29.33,SSE,157,14.0,52.0,84,0.02,,,-99.99,Weather View 32 v60,2013-02-11 01:15:00,
2013-02-10 20:25:00,43.0,38.8,29.33,South,180,18.0,52.0,85,0.00,,,-99.99,Weather View 32 v60,2013-02-11 01:25:00,
2013-02-10 20:39:00,41.0,36.8,29.35,SSE,157,17.0,47.0,85,0.04,,,-99.99,Weather View 32 v60,2013-02-11 01:39:00,
2013-02-10 20:45:00,43.0,38.8,29.34,South,180,19.0,54.0,85,0.00,,,-99.99,Weather View 32 v60,2013-02-11 01:45:00,
2013-02-10 20:50:00,43.0,38.8,29.33,South,180,34.0,54.0,85,0.00,,,-99.99,Weather View 32 v60,2013-02-11 01:50:00,
2013-02-10 20:55:00,43.0,38.8,29.33,SE,135,8.0,54.0,85,0.00,,,-99.99,Weather View 32 v60,2013-02-11 01:55:00,
2013-02-10 21:00:00,43.0,38.5,29.34,SSW,202,8.0,54.0,84,0.00,,,-99.99,Weather View 32 v60,2013-02-11 02:00:00,
2013-02-10 21:05:00,43.0,38.5,29.34,SSW,202,15.0,54.0,84,0.00,,,-99.99,Weather View 32 v60,2013-02-11 02:05:00,
2013-02-10 21:15:00,44.0,39.5,29.33,SSE,157,19.0,54.0,84,0.00,,,-99.99,Weather View 32 v60,2013-02-11 02:15:00,
2013-02-10 21:24:00,42.0,37.5,29.33,SSW,202,19.0,52.0,84,0.01,,,-99.99,Weather View 32 v60,2013-02-11 02:24:00,
2013-02-10 21:25:00,44.0,39.8,29.32,South,180,12.0,54.0,85,0.00,,,-99.99,Weather View 32 v60,2013-02-11 02:25:00,
2013-02-10 21:35:00,43.0,38.5,29.34,SE,135,23.0,53.0,84,0.00,,,-99.99,Weather View 32 v60,2013-02-11 02:35:00,
2013-02-10 21:40:00,44.0,39.8,29.30,SSW,202,12.0,57.0,85,0.00,,,-99.99,Weather View 32 v60,2013-02-11 02:40:00,
2013-02-10 21:44:00,43.0,38.8,29.34,SSW,202,31.0,54.0,85,0.00,,,-99.99,Weather View 32 v60,2013-02-11 02:44:00,
2013-02-10 22:00:00,44.0,39.8,29.29,South,180,12.0,57.0,85,0.00,,,-99.99,Weather View 32 v60,2013-02-11 03:00:00,
2013-02-10 22:05:00,44.0,39.8,29.29,SW,225,19.0,57.0,85,0.00,,,-99.99,Weather View 32 v60,2013-02-11 03:05:00,
2013-02-10 22:10:00,44.0,39.8,29.29,South,180,16.0,57.0,85,0.00,,,-99.99,Weather View 32 v60,2013-02-11 03:10:00,
2013-02-10 22:14:00,44.0,39.5,29.33,South,180,16.0,54.0,84,0.00,,,-99.99,Weather View 32 v60,2013-02-11 03:14:00,
2013-02-10 22:15:00,45.0,40.5,29.29,SSW,202,29.0,57.0,84,0.00,,,-99.99,Weather View 32 v60,2013-02-11 03:15:00,
2013-02-10 22:25:00,44.0,39.5,29.32,SW,225,30.0,54.0,84,0.00,,,-99.99,Weather View 32 v60,2013-02-11 03:25:00,
2013-02-10 22:30:00,44.0,39.8,29.32,South,180,12.0,54.0,85,0.00,,,-99.99,Weather View 32 v60,2013-02-11 03:30:00,
2013-02-10 22:40:00,46.0,41.1,29.28,SSE,157,20.0,54.0,83,0.00,,,-99.99,Weather View 32 v60,2013-02-11 03:40:00,
2013-02-10 22:49:00,44.0,39.8,29.30,SSW,202,10.0,57.0,85,0.00,,,-99.99,Weather View 32 v60,2013-02-11 03:49:00,
2013-02-10 22:50:00,46.0,41.1,29.28,South,180,19.0,57.0,83,0.00,,,-99.99,Weather View 32 v60,2013-02-11 03:50:00,
2013-02-10 22:54:00,44.0,39.8,29.30,SW,225,44.0,57.0,85,0.00,,,-99.99,Weather View 32 v60,2013-02-11 03:54:00,
2013-02-10 22:59:00,44.0,39.8,29.30,SW,225,37.0,57.0,85,0.00,,,-99.99,Weather View 32 v60,2013-02-11 03:59:00,
2013-02-10 23:00:00,46.0,41.1,29.28,South,180,31.0,57.0,83,0.00,,,-99.99,Weather View 32 v60,2013-02-11 04:00:00,
2013-02-10 23:05:00,46.0,41.1,29.28,SSW,202,40.0,57.0,83,0.00,,,-99.99,Weather View 32 v60,2013-02-11 04:05:00,
2013-02-10 23:10:00,46.0,40.8,29.27,SW,225,40.0,57.0,82,0.00,,,-99.99,Weather View 32 v60,2013-02-11 04:10:00,
2013-02-10 23:15:00,46.0,40.8,29.27,SSW,202,23.0,57.0,82,0.00,,,-99.99,Weather View 32 v60,2013-02-11 04:15:00,
2013-02-10 23:20:00,46.0,40.8,29.27,SW,225,25.0,57.0,82,0.00,,,-99.99,Weather View 32 v60,2013-02-11 04:20:00,
2013-02-10 23:24:00,45.0,40.5,29.29,South,180,20.0,57.0,84,0.00,,,-99.99,Weather View 32 v60,2013-02-11 04:24:00,
2013-02-10 23:25:00,46.0,40.8,29.27,SW,225,19.0,57.0,82,0.00,,,-99.99,Weather View 32 v60,2013-02-11 04:25:00,
2013-02-10 23:29:00,45.0,40.1,29.29,South,180,24.0,57.0,83,0.00,,,-99.99,Weather View 32 v60,2013-02-11 04:29:00,
2013-02-10 23:30:00,45.0,40.1,29.27,SW,225,27.0,66.0,83,0.00,,,-99.99,Weather View 32 v60,2013-02-11 04:30:00,
2013-02-10 23:35:00,45.0,39.8,29.27,SW,225,58.0,67.0,82,0.00,,,-99.99,Weather View 32 v60,2013-02-11 04:35:00,
2013-02-10 23:39:00,46.0,41.1,29.28,SSE,157,27.0,54.0,83,0.00,,,-99.99,Weather View 32 v60,2013-02-11 04:39:00,
2013-02-10 23:40:00,44.0,39.5,29.27,SW,225,22.0,68.0,84,0.00,,,-99.99,Weather View 32 v60,2013-02-11 04:40:00,
2013-02-10 23:45:00,43.0,38.5,29.27,SSW,202,47.0,68.0,84,0.00,,,-99.99,Weather View 32 v60,2013-02-11 04:45:00,
2013-02-10 23:49:00,46.0,41.1,29.28,South,180,13.0,57.0,83,0.00,,,-99.99,Weather View 32 v60,2013-02-11 04:49:00,
2013-02-10 23:50:00,43.0,38.8,29.28,SW,225,50.0,68.0,85,0.00,,,-99.99,Weather View 32 v60,2013-02-11 04:50:00,
2013-02-10 23:55:00,43.0,38.8,29.28,SW,225,35.0,68.0,85,0.00,,,-99.99,Weather View 32 v60,2013-02-11 04:55:00,
2013-02-10 23:59:00,46.0,41.1,29.28,South,180,23.0,57.0,83,0.00,,,-99.99,Weather View 32 v60,2013-02-11 04:59:00,